G7VHX Weather Reports


Display with metric or nautical units.
time (UTC)temp
F
wind
direction
speed
MPH
gust
MPH
rain 1hr
in
rain 24hr
in
rain mn
in
humidity
%
barometer
mb
20201023050034 54 174 2.0 10.0 0.00 0.00 0.00 94 1008.3
20201023044538 53 171 2.0 5.0 0.00 0.00 0.00 94 1008.2
20201023043034 53 124 0.0 5.0 0.00 0.00 0.00 94 1008.2
20201023041539 53 129 1.0 3.0 0.00 0.00 0.00 94 1008.1
20201023040022 53 130 1.0 3.0 0.00 0.00 0.00 94 1008.3
20201023034553 53 130 0.0 0.0 0.00 0.00 0.00 94 1008.5
20201023033029 52 130 0.0 3.0 0.00 0.00 0.00 94 1008.7
20201023031526 52 130 0.0 0.0 0.00 0.00 0.00 94 1008.9
20201023030038 52 130 0.0 3.0 0.00 0.00 0.00 94 1009.0
20201023024520 52 130 0.0 5.0 0.00 0.00 0.00 94 1009.2
20201023023021 51 287 0.0 0.0 0.00 0.00 0.00 94 1009.3
20201023021520 51 287 0.0 1.0 0.00 0.00 0.00 94 1009.5
20201023020018 50 287 0.0 0.0 0.00 0.00 0.00 93 1009.8
20201023014516 50 287 0.0 0.0 0.00 0.00 0.00 93 1010.1
20201023013007 50 287 0.0 0.0 0.00 0.00 0.00 93 1010.1
20201023011621 51 287 0.0 0.0 0.00 0.00 0.00 92 1010.2
20201023010201 51 287 0.0 0.0 0.00 0.00 0.00 93 1010.3
20201023004657 51 287 0.0 0.0 0.00 0.00 0.00 93 1010.4
20201023003149 52 287 0.0 0.0 0.00 0.00 0.00 93 1010.6
20201023001627 52 287 0.0 0.0 0.00 0.00 0.00 93 1010.7
20201023000058 52 287 0.0 0.0 0.00 0.00 0.00 93 1010.8
20201022234629 52 287 0.0 0.0 0.00 0.00 0.00 93 1010.9
20201022233133 52 287 0.0 0.0 0.00 0.00 0.00 93 1011.1
20201022231619 52 287 0.0 0.0 0.00 0.00 0.00 93 1011.2
20201022230134 51 287 0.0 0.0 0.00 0.00 0.00 92 1011.2
20201022224635 51 287 0.0 0.0 0.00 0.00 0.00 92 1011.3
20201022223132 52 287 0.0 0.0 0.00 0.00 0.00 92 1011.3
20201022221617 52 287 0.0 0.0 0.00 0.00 0.00 92 1011.2
20201022220154 52 287 0.0 0.0 0.00 0.00 0.00 92 1011.4
20201022214633 53 287 0.0 0.0 0.00 0.00 0.00 92 1011.4
20201022213053 53 287 0.0 0.0 0.00 0.00 0.00 91 1011.5
20201022211549 53 287 0.0 0.0 0.00 0.00 0.00 91 1011.6
20201022210103 53 287 0.0 0.0 0.00 0.00 0.00 91 1011.6
20201022204607 53 287 0.0 0.0 0.00 0.00 0.00 91 1011.7
20201022203100 53 287 0.0 0.0 0.00 0.00 0.00 91 1011.5
20201022201616 53 287 0.0 0.0 0.00 0.00 0.00 90 1011.5
20201022200142 53 287 0.0 0.0 0.00 0.00 0.00 90 1011.4
20201022194553 53 287 0.0 0.0 0.00 0.00 0.00 90 1011.4
20201022193115 53 287 0.0 0.0 0.00 0.00 0.00 89 1011.3
20201022191622 53 287 0.0 0.0 0.00 0.00 0.00 89 1011.2
20201022190053 53 287 0.0 0.0 0.00 0.00 0.00 89 1011.3
20201022184605 53 287 0.0 0.0 0.00 0.00 0.00 88 1011.3
20201022183050 53 287 0.0 0.0 0.00 0.00 0.00 87 1011.1
20201022182320 53 287 0.0 0.0 0.00 0.00 0.00 86 1011.2
20201022180050 54 287 0.0 0.0 0.00 0.00 0.00 85 1011.0
20201022174548 54 287 0.0 0.0 0.00 0.00 0.00 84 1010.9
20201022173106 55 290 0.0 0.0 0.00 0.00 0.00 83 1010.7
20201022171548 56 290 0.0 3.0 0.00 0.00 0.00 82 1010.7
20201022170015 56 291 0.0 4.0 0.00 0.00 0.00 81 1010.6
20201022164522 57 276 0.0 5.0 0.00 0.00 0.00 80 1010.5
20201022163041 58 286 0.0 5.0 0.00 0.00 0.00 78 1010.3
20201022161533 59 283 0.0 4.0 0.00 0.00 0.00 77 1010.0
20201022160026 59 293 2.0 5.0 0.00 0.00 0.00 76 1010.1
20201022154551 60 231 0.0 5.0 0.00 0.00 0.00 76 1010.0
20201022153033 60 217 3.0 8.0 0.00 0.00 0.00 73 1009.9
20201022151533 60 233 1.0 5.0 0.00 0.00 0.00 75 1009.9
20201022150020 60 304 1.0 7.0 0.00 0.00 0.00 75 1009.9
20201022144517 60 271 2.0 8.0 0.00 0.01 0.00 75 1009.9
20201022143154 60 210 2.0 7.0 0.00 0.01 0.00 76 1009.7
20201022141620 59 258 1.0 4.0 0.00 0.01 0.00 79 1009.9
20201022140122 58 301 1.0 5.0 0.00 0.01 0.00 79 1009.7
20201022134818 58 304 1.0 5.0 0.00 0.02 0.00 79 1009.8
20201022133122 58 310 1.0 4.0 0.00 0.02 0.00 79 1009.9
20201022131644 58 297 1.0 5.0 0.00 0.02 0.00 80 1009.8
20201022130158 58 264 3.0 7.0 0.00 0.02 0.00 79 1010.0
20201022124648 58 287 1.0 6.0 0.00 0.06 0.00 79 1009.9
20201022124557 58 278 1.0 6.0 0.00 0.06 0.00 79 1009.9
20201022123236 58 216 2.0 7.0 0.00 0.06 0.00 78 1009.9
20201022121819 59 218 2.0 7.0 0.00 0.06 0.00 77 1009.8
20201022120124 58 243 3.0 9.0 0.00 0.06 0.00 78 1009.7
20201022114704 59 244 2.0 10.0 0.00 0.06 0.00 78 1009.7
20201022113112 58 294 4.0 8.0 0.00 0.06 0.00 79 1009.9
20201022111618 59 252 2.0 8.0 0.00 0.06 0.00 79 1010.0
20201022110130 60 279 3.0 7.0 0.00 0.06 0.00 79 1010.0
20201022104608 58 171 1.0 6.0 0.00 0.08 0.00 82 1009.8
20201022103047 56 233 2.0 8.0 0.00 0.08 0.00 85 1009.9
20201022101549 56 297 0.0 7.0 0.00 0.08 0.00 84 1009.7
20201022100122 57 286 1.0 9.0 0.00 0.08 0.00 83 1009.9
20201022094558 57 247 4.0 11.0 0.00 0.15 0.00 84 1009.6
20201022093046 55 206 2.0 9.0 0.00 0.15 0.00 86 1009.6
20201022091551 56 223 3.0 11.0 0.00 0.15 0.00 86 1009.3
20201022090106 56 209 4.0 11.0 0.00 0.15 0.00 87 1009.2
20201022084651 56 223 4.0 13.0 0.00 0.22 0.00 88 1009.1
20201022083041 55 212 1.0 9.0 0.00 0.22 0.00 90 1008.9
20201022081536 54 224 2.0 7.0 0.00 0.22 0.00 91 1008.7
20201022080036 54 211 2.0 7.0 0.00 0.22 0.00 91 1008.5
20201022074523 53 222 2.0 8.0 0.00 0.28 0.00 91 1008.4
20201022073043 53 194 0.0 6.0 0.00 0.28 0.00 91 1008.2
20201022071524 53 177 0.0 9.0 0.00 0.28 0.00 91 1008.0
20201022070047 53 192 2.0 8.0 0.00 0.28 0.00 91 1007.8
20201022064521 53 198 1.0 8.0 0.00 0.35 0.00 91 1007.7
20201022063016 53 214 1.0 6.0 0.00 0.35 0.00 91 1007.3
20201022061522 53 201 1.0 8.0 0.00 0.35 0.00 91 1007.0
20201022060028 53 181 2.0 14.0 0.00 0.35 0.00 91 1006.9
20201022054529 53 167 0.0 12.0 0.00 0.38 0.00 91 1007.0
20201022051711 53 188 1.0 5.0 0.00 0.38 0.00 91 1006.7